User: anonymous   Login
Location: Unspecified
(0.0000°N, 0.0000°E)
Time: 19:23:59
(UTC+00:00)
Language:

STARLINK-3971 - Orbit

View from above orbital plane
View from above orbital plane
View from above satellite
View from above satellite

Ground track
Ground track

The orbit is defined by the following mean orbital elements,

1 52642U          26145.37836748 +.00000000 +00000-0 +27793-4 0 00008
2 52642  53.2152 274.8508 0001147  93.1141 266.9982 15.08835914    01
Epoch (UTC): 25 May 2026 09:04:50
Eccentricity: 0.0001147
inclination: 53.2152°
perigee height: 539 km
apogee height: 541 km
right ascension of ascending node: 274.8508°
argument of perigee: 93.1141°
revolutions per day: 15.08835914
mean anomaly at epoch: 266.9982°

The dashed part of the orbit path shows where the satellite is in the earth's shadow,  

DLR